Lafayette, IN

4:00 PM EDT on April 24, 2017 (GMT -0400)
Purdue Univ

Weather History for KLAF - July, 2013

Change the Weather History Date:

Monday, July 15, 2013

  Actual Average Record
Temperature  
Mean Temperature 80 °F 75 °F  
Max Temperature 89 °F 85 °F 104 °F (1980)
Min Temperature 71 °F 64 °F 49 °F (1967)
Degree Days  
Heating Degree Days 0 0  
Month to date heating degree days 0 0  
Since 1 June heating degree days 18 22  
Since 1 July heating degree days 0 0  
Cooling Degree Days 15 10  
Month to date cooling degree days 109 150  
Year to date cooling degree days 388 444  
Since 1 June cooling degree days 287 367  
Growing Degree Days 30 (Base 50)    
Moisture  
Dew Point 71 °F    
Average Humidity 76    
Maximum Humidity 93    
Minimum Humidity 59    
Precipitation  
Precipitation 0.00 in 0.14 in 2.37 in (1958)
Month to date precipitation 0.98 2.08  
Year to date precipitation 23.87 20.20  
Sea Level Pressure  
Sea Level Pressure 30.23 in    
Wind  
Wind Speed 4 mph (SSE)    
Max Wind Speed 13 mph    
Max Gust Speed 15 mph    
Visibility 10 miles    
Events      
T = Trace of Precipitation, MM = Missing Value Source: NWS Daily Summary

Daily Weather History Graph

Daily Weather History Graph

Search for Another Location

Airport or City:

Trip Planner

Search our weather history database for the weather conditions in past years. The results will help you decide how hot, cold, wet, or windy it might be!

Date:

Astronomy

Jul. 15, 2013 Rise Set
Actual Time 6:30 AM EDT 9:16 PM EDT
Civil Twilight 5:58 AM EDT 9:48 PM EDT
Nautical Twilight 5:18 AM EDT 10:28 PM EDT
Astronomical Twilight 4:31 AM EDT 11:14 PM EDT
Moon 1:51 PM EDT (7/15) 12:27 AM EDT (7/15)
Length of Visible Light 15h 50m
Length of Day
14h 46m
Waxing Crescent, 45% of the Moon is Illuminated
Jul 15
Waxing Crescent
Jul 15
First Quarter
Jul 22
Full
Jul 29
Last Quarter
Aug 6
New

Hourly Weather History & Observations

Time (EDT) Temp. Heat Index Dew Point Humidity Pressure Visibility Wind Dir Wind Speed Gust Speed Precip Events Conditions
12:54 AM 73.9 °F - 71.1 °F 91% 30.19 in 10.0 mi East 4.6 mph - N/A   Clear
1:54 AM 75.0 °F - 71.1 °F 87% 30.19 in 10.0 mi Calm Calm - N/A   Clear
2:54 AM 73.9 °F - 71.1 °F 91% 30.19 in 10.0 mi Calm Calm - N/A   Clear
3:54 AM 75.0 °F - 70.0 °F 84% 30.19 in 10.0 mi East 3.5 mph - N/A   Clear
4:54 AM 73.0 °F - 70.0 °F 90% 30.20 in 10.0 mi Calm Calm - N/A   Clear
5:54 AM 73.0 °F - 70.0 °F 90% 30.22 in 10.0 mi Calm Calm - N/A   Clear
6:54 AM 73.0 °F - 70.0 °F 90% 30.23 in 10.0 mi East 3.5 mph - N/A   Clear
7:54 AM 75.9 °F - 72.0 °F 87% 30.25 in 10.0 mi East 3.5 mph - N/A   Clear
8:54 AM 79.0 °F - 72.0 °F 79% 30.26 in 10.0 mi South 4.6 mph - N/A   Clear
9:54 AM 81.0 °F 85.2 °F 72.0 °F 74% 30.27 in 10.0 mi South 6.9 mph - N/A   Clear
10:54 AM 82.9 °F 88.0 °F 72.0 °F 69% 30.27 in 10.0 mi SSW 4.6 mph - N/A   Mostly Cloudy
11:54 AM 84.9 °F 90.7 °F 72.0 °F 65% 30.27 in 10.0 mi South 4.6 mph - N/A   Clear
12:54 PM 87.1 °F 93.6 °F 72.0 °F 61% 30.27 in 10.0 mi Variable 5.8 mph - N/A   Scattered Clouds
1:54 PM 87.1 °F 92.8 °F 71.1 °F 59% 30.26 in 10.0 mi SSE 5.8 mph - N/A   Scattered Clouds
2:54 PM 88.0 °F 93.8 °F 71.1 °F 57% 30.25 in 10.0 mi Variable 6.9 mph - N/A   Mostly Cloudy
3:54 PM 88.0 °F 93.8 °F 71.1 °F 57% 30.24 in 10.0 mi South 8.1 mph - N/A   Scattered Clouds
4:54 PM 88.0 °F 93.8 °F 71.1 °F 57% 30.23 in 10.0 mi SSE 9.2 mph - N/A   Scattered Clouds
5:54 PM 87.1 °F 93.6 °F 72.0 °F 61% 30.22 in 10.0 mi SE 6.9 mph - N/A   Partly Cloudy
6:54 PM 84.9 °F 90.1 °F 71.1 °F 63% 30.22 in 10.0 mi South 4.6 mph - N/A   Partly Cloudy
7:54 PM 84.9 °F 89.4 °F 70.0 °F 61% 30.22 in 10.0 mi South 5.8 mph - N/A   Partly Cloudy
8:54 PM 82.9 °F 87.5 °F 71.1 °F 67% 30.22 in 10.0 mi South 4.6 mph - N/A   Clear
9:54 PM 79.0 °F - 71.1 °F 77% 30.23 in 10.0 mi Calm Calm - N/A   Clear
10:54 PM 78.1 °F - 71.1 °F 79% 30.25 in 10.0 mi Calm Calm - N/A   Clear
11:54 PM 75.0 °F - 70.0 °F 84% 30.26 in 10.0 mi Calm Calm - N/A   Clear